Location: Vysna Sitnica
(49.0952°N, 21.7906°E)
Time: 19:23:43
(UTC+02:00)

ISS - Visible Passes

Search period start: 19 July 2019 00:00
Search period end: 29 July 2019 00:00
Orbit: 409 x 418 km, 51.6° (Epoch: 20 July)

Date Brightness Start Highest point End Pass type
(mag) Time Alt. Az. Time Alt. Az. Time Alt. Az.
19 Jul -3.1 00:42:57 10° WNW 00:46:14 54° N 00:49:31 10° E visible
19 Jul -3.9 02:19:43 10° WNW 02:23:02 68° SSW 02:26:19 10° ESE visible
19 Jul -2.1 03:57:16 10° W 03:59:14 15° SW 04:01:10 10° S visible
19 Jul -3.9 22:16:40 10° WSW 22:20:00 89° SSE 22:23:21 10° ENE visible
19 Jul -3.0 23:53:35 10° W 23:56:52 52° N 00:00:08 10° ENE visible
20 Jul -3.9 01:30:23 10° WNW 01:33:45 88° NNE 01:37:04 10° ESE visible
20 Jul -2.3 03:07:27 10° W 03:11:56 15° S 03:12:47 10° SSE visible
20 Jul -3.8 21:27:24 10° WSW 21:30:43 64° SSE 21:34:02 10° ENE visible
20 Jul -3.1 23:04:12 10° W 23:07:29 55° N 23:10:47 10° ENE visible
21 Jul -3.6 00:41:04 10° WNW 00:44:25 69° NNE 00:45:17 44° E visible
21 Jul -1.2 02:17:54 10° W 02:18:01 11° W 02:18:01 11° W visible
21 Jul -3.3 22:14:47 10° W 22:18:06 62° N 22:21:26 10° ENE visible
21 Jul -3.2 23:51:44 10° WNW 23:55:02 58° N 23:56:37 27° E visible
22 Jul -1.6 01:28:29 10° WNW 01:29:24 17° W 01:29:24 17° W visible
22 Jul -3.6 21:25:23 10° WSW 21:28:43 76° NNW 21:32:05 10° ENE visible
22 Jul -3.0 23:02:21 10° WNW 23:05:38 53° N 23:08:23 14° E visible
23 Jul -2.6 00:39:07 10° WNW 00:41:10 34° WNW 00:41:10 34° WNW visible
23 Jul -3.0 22:12:55 10° W 22:16:13 52° N 22:19:30 10° ENE visible
23 Jul -3.8 23:49:45 10° WNW 23:53:06 82° NNE 23:53:06 82° NNE visible
24 Jul -3.1 21:23:29 10° W 21:26:47 56° N 21:30:05 10° ENE visible
24 Jul -3.5 23:00:24 10° WNW 23:03:43 66° NNE 23:05:08 31° E visible
25 Jul -1.4 00:37:11 10° WNW 00:37:56 15° W 00:37:56 15° W visible
25 Jul -3.2 22:10:59 10° WNW 22:14:17 56° N 22:17:12 13° E visible
25 Jul -2.8 23:47:45 10° WNW 23:50:01 37° W 23:50:01 37° W visible
26 Jul -3.0 21:21:33 10° WNW 21:24:51 53° N 21:28:08 10° E visible
26 Jul -3.9 22:58:20 10° WNW 23:01:41 81° SSW 23:02:07 64° SE visible
27 Jul -3.7 22:08:56 10° WNW 22:12:17 77° NNE 22:14:16 22° E visible
27 Jul -1.6 23:45:51 10° W 23:47:04 18° W 23:47:04 18° W visible
28 Jul -3.4 21:19:31 10° WNW 21:22:51 62° N 21:26:09 10° E visible
28 Jul -3.2 22:56:18 10° WNW 22:59:14 42° SW 22:59:14 42° SW visible
